Location: Escondido Hill
(38.9119°N, 104.7815°W)
Time: 17:51:04
(UTC-06:00)

Tiangong 2 - Visible Passes

Search period start: 24 April 2019 00:00
Search period end: 04 May 2019 00:00
Orbit: 378 x 390 km, 42.8° (Epoch: 24 April)

Date Brightness Start Highest point End Pass type
(mag) Time Alt. Az. Time Alt. Az. Time Alt. Az.
30 Apr 3.9 05:10:14 10° SSE 05:10:58 11° SE 05:11:41 10° SE visible
02 May 3.1 04:46:11 14° S 04:47:45 19° SE 04:50:06 10° E visible
03 May 1.3 05:21:16 10° SW 05:24:22 61° SSE 05:27:30 10° ENE visible
